EW8702 Weather Reports


Display with metric or nautical units.
time (UTC)temp
F
wind
direction
speed
MPH
gust
MPH
rain 1hr
in
rain 24hr
in
rain mn
in
humidity
%
barometer
mb
20260505094122 51 156 1.0 4.0 0.00 0.00 0.00 60 1007.9
20260505093122 52 126 2.0 3.0 0.00 0.00 0.00 59 1007.8
20260505092122 52 126 0.0 3.0 0.00 0.00 0.00 58 1007.9
20260505091122 53 122 1.0 3.0 0.00 0.00 0.00 57 1007.8
20260505090122 53 157 1.0 3.0 0.00 0.00 0.00 57 1007.8
20260505085122 54 37 2.0 6.0 0.00 0.00 0.00 56 1007.9
20260505084122 54 5 3.0 6.0 0.00 0.00 0.00 56 1008.0
20260505083122 55 7 2.0 4.0 0.00 0.00 0.00 56 1007.9
20260505082122 55 348 3.0 8.0 0.00 0.00 0.00 55 1008.0
20260505081122 55 357 4.0 9.0 0.00 0.00 0.00 55 1008.1
20260505080122 56 339 3.0 8.0 0.00 0.00 0.00 55 1008.2
20260505075122 56 334 2.0 6.0 0.00 0.00 0.00 54 1008.2
20260505074122 56 350 4.0 11.0 0.00 0.00 0.00 53 1008.3
20260505073122 57 45 4.0 11.0 0.00 0.00 0.00 52 1008.3
20260505072122 57 346 3.0 8.0 0.00 0.00 0.00 53 1008.2
20260505071122 57 13 2.0 4.0 0.00 0.00 0.00 52 1008.3
20260505070122 57 6 3.0 7.0 0.00 0.00 0.00 51 1008.4
20260505065122 57 192 1.0 5.0 0.00 0.00 0.00 50 1008.2
20260505064122 58 219 2.0 8.0 0.00 0.00 0.00 50 1008.0
20260505063122 59 234 4.0 16.0 0.00 0.00 0.00 48 1008.2
20260505062122 59 278 4.0 10.0 0.00 0.00 0.00 47 1008.0
20260505061122 59 227 2.0 8.0 0.00 0.00 0.00 45 1007.8
20260505055122 58 1 4.0 10.0 0.00 0.00 0.00 45 1007.6
20260505054122 57 5 2.0 8.0 0.00 0.00 0.00 51 1007.5
20260505053143 54 338 3.0 8.0 0.00 0.00 0.00 52 1007.6
20260505052122 52 326 3.0 8.0 0.00 0.00 0.00 56 1007.7
20260505051122 52 315 2.0 5.0 0.00 0.00 0.00 57 1007.7
20260505050122 53 337 1.0 3.0 0.00 0.00 0.00 56 1007.6
20260505041143 56 238 1.0 2.0 0.00 0.00 0.00 53 1007.4
20260505040122 57 274 0.0 2.0 0.00 0.00 0.00 49 1007.2
20260505035143 57 269 1.0 2.0 0.00 0.00 0.00 48 1007.1
20260505034143 58 265 0.0 4.0 0.00 0.00 0.00 48 1007.0
20260505033143 58 0 0.0 1.0 0.00 0.00 0.00 47 1006.9
20260505032122 59 246 1.0 3.0 0.00 0.00 0.00 45 1006.8
20260505031122 60 240 1.0 3.0 0.00 0.00 0.00 44 1006.7
20260505030122 61 140 1.0 2.0 0.00 0.00 0.00 42 1006.6
20260505025122 62 0 0.0 0.0 0.00 0.00 0.00 39 1006.6
20260505024122 63 119 0.0 1.0 0.00 0.00 0.00 37 1006.5
20260505023122 63 106 1.0 2.0 0.00 0.00 0.00 35 1006.3
20260505022122 64 98 0.0 1.0 0.00 0.00 0.00 35 1006.1
20260505021143 64 102 1.0 2.0 0.00 0.00 0.00 35 1006.0
20260505020122 65 109 1.0 3.0 0.00 0.00 0.00 35 1005.9
20260505015122 65 93 2.0 6.0 0.00 0.00 0.00 35 1005.9
20260505014122 67 117 2.0 6.0 0.00 0.00 0.00 34 1005.9
20260505013122 67 130 2.0 7.0 0.00 0.00 0.00 33 1006.0
20260505012143 68 110 3.0 7.0 0.00 0.00 0.00 31 1006.1
20260505011143 69 129 3.0 7.0 0.00 0.00 0.00 30 1006.0
20260505010122 69 154 3.0 11.0 0.00 0.00 0.00 30 1006.1
20260505005122 69 183 3.0 5.0 0.00 0.00 0.00 28 1006.0
20260505004122 69 214 3.0 9.0 0.00 0.00 0.00 29 1005.9
20260505003143 69 251 4.0 9.0 0.00 0.00 0.00 28 1005.9
20260505002122 69 229 4.0 10.0 0.00 0.00 0.00 31 1006.0
20260505001122 70 231 4.0 9.0 0.00 0.00 0.00 30 1006.0
20260505000122 70 242 4.0 9.0 0.00 0.00 0.00 33 1006.1
20260504235122 70 241 4.0 8.0 0.00 0.00 0.00 29 1006.1
20260504234122 70 249 5.0 11.0 0.00 0.00 0.00 30 1006.0
20260504233122 71 249 6.0 12.0 0.00 0.00 0.00 28 1005.9
20260504232124 71 239 4.0 10.0 0.00 0.00 0.00 23 1005.9
20260504231123 72 230 4.0 8.0 0.00 0.00 0.00 24 1005.9
20260504230122 72 234 4.0 8.0 0.00 0.00 0.00 24 1005.9
20260504225122 72 221 5.0 13.0 0.00 0.00 0.00 28 1005.9
20260504224122 72 244 5.0 8.0 0.00 0.00 0.00 25 1006.1
20260504223122 72 254 5.0 12.0 0.00 0.00 0.00 22 1006.0
20260504222143 73 232 4.0 9.0 0.00 0.00 0.00 24 1006.1
20260504221122 73 218 4.0 14.0 0.00 0.00 0.00 28 1006.1
20260504220122 73 241 4.0 9.0 0.00 0.00 0.00 26 1006.3
20260504215122 73 241 3.0 7.0 0.00 0.00 0.00 23 1006.3
20260504214122 74 228 3.0 7.0 0.00 0.00 0.00 27 1006.5
20260504213122 74 223 4.0 7.0 0.00 0.00 0.00 24 1006.7
20260504212122 73 251 4.0 8.0 0.00 0.00 0.00 22 1006.8
20260504211122 73 246 4.0 11.0 0.00 0.00 0.00 25 1006.9
20260504210143 73 222 4.0 7.0 0.00 0.00 0.00 30 1007.0
20260504205122 73 252 6.0 11.0 0.00 0.00 0.00 24 1007.1
20260504204122 73 236 4.0 7.0 0.00 0.00 0.00 25 1007.1
20260504203122 73 237 4.0 8.0 0.00 0.00 0.00 25 1007.1
20260504202122 73 237 3.0 8.0 0.00 0.00 0.00 27 1007.2
20260504201122 72 229 5.0 10.0 0.00 0.00 0.00 27 1007.3
20260504200122 72 219 5.0 12.0 0.00 0.00 0.00 32 1007.5
20260504195122 71 223 6.0 13.0 0.00 0.00 0.00 28 1007.6
20260504194122 72 235 5.0 11.0 0.00 0.00 0.00 27 1007.7
20260504193122 71 226 5.0 11.0 0.00 0.00 0.00 27 1007.7
20260504192122 71 239 5.0 13.0 0.00 0.00 0.00 31 1007.7
20260504191122 71 248 4.0 8.0 0.00 0.00 0.00 29 1007.9
20260504190143 71 238 4.0 9.0 0.00 0.00 0.00 28 1008.0
20260504185122 71 234 5.0 10.0 0.00 0.00 0.00 31 1008.0
20260504184122 70 251 4.0 8.0 0.00 0.00 0.00 29 1008.2
20260504183122 70 250 4.0 8.0 0.00 0.00 0.00 30 1008.3
20260504182122 70 243 4.0 7.0 0.00 0.00 0.00 30 1008.5
20260504181122 70 237 4.0 11.0 0.00 0.00 0.00 32 1008.6
20260504180143 69 268 3.0 10.0 0.00 0.00 0.00 31 1008.7
20260504175122 69 266 2.0 8.0 0.00 0.00 0.00 33 1008.9
20260504174122 69 274 3.0 8.0 0.00 0.00 0.00 31 1009.0
20260504173122 69 330 1.0 4.0 0.00 0.00 0.00 32 1009.0
20260504172122 68 168 2.0 5.0 0.00 0.00 0.00 32 1009.2
20260504171122 67 163 2.0 4.0 0.00 0.00 0.00 34 1009.2
20260504170122 66 145 1.0 4.0 0.00 0.00 0.00 33 1009.4
20260504160122 59 163 1.0 4.0 0.00 0.00 0.00 34 1009.9
20260504151144 50 252 0.0 1.0 0.00 0.00 0.00 49 1010.5
20260504150123 48 254 0.0 2.0 0.00 0.00 0.00 52 1010.6
20260504141143 43 0 0.0 0.0 0.00 0.00 0.00 66 1010.9
20260504140122 43 0 0.0 0.0 0.00 0.00 0.00 66 1011.1
20260504130122 40 0 0.0 0.0 0.00 0.00 0.00 66 1010.7
20260504120122 42 93 1.0 2.0 0.00 0.00 0.00 62 1010.4
20260504110122 43 19 2.0 6.0 0.00 0.00 0.00 58 1010.3
20260504100122 42 4 2.0 5.0 0.00 0.00 0.00 58 1010.2